Wind_Speed
38 39 40 42 44 45 46 48 48 49 50 52 53 54 55 58 59 61 63 64 64 62 59 56 54 51 49 48 47 45 43 42 41 39 37 34 31 28 25 23 21 19 18
40 42 43 45 47 48 49 49 50 51 52 53 53 55 56 57 59 62 65 67 68 68 66 63 59 57 55 53 50 48 46 45 43 41 40 37 34 31 28 25 23 21 19
42 44 46 47 48 49 50 51 52 53 53 54 54 54 55 57 58 60 62 66 70 71 71 69 65 62 60 58 55 52 50 48 46 44 42 40 37 34 30 27 24 22 20
44 45 47 49 50 51 51 52 52 53 53 54 54 55 55 56 58 60 61 62 66 70 73 73 71 69 64 61 59 57 54 51 48 46 44 42 39 36 32 29 26 24 22
45 46 48 50 50 51 51 51 51 51 51 52 54 55 56 56 57 59 60 62 63 66 70 74 75 74 70 66 62 60 57 55 51 49 46 43 41 38 35 32 29 26 24
46 48 49 50 50 50 50 50 50 49 49 49 50 52 54 56 57 58 59 61 61 62 64 69 72 74 74 71 68 65 60 57 54 51 48 45 42 40 38 35 32 28 26
47 48 49 50 49 49 49 48 47 45 44 44 45 46 49 52 54 56 57 58 59 59 60 62 67 70 71 72 70 67 63 59 57 54 52 48 44 42 40 38 34 31 28
47 48 50 50 49 48 47 45 42 40 39 38 39 40 43 46 50 53 55 57 57 57 57 58 60 64 66 69 70 69 67 62 59 57 53 50 48 46 43 40 37 33 29
47 49 50 49 47 46 44 41 39 35 33 33 33 35 37 41 44 47 49 51 53 53 54 54 55 57 61 64 66 67 67 64 60 58 56 53 50 48 45 41 37 34 31
48 49 49 48 46 43 41 38 35 31 29 28 27 28 30 35 39 41 44 45 47 48 49 50 51 51 54 57 59 61 62 64 62 59 58 56 52 49 45 43 39 35 32
48 48 48 47 45 42 39 35 32 29 26 23 21 21 23 27 32 36 40 41 42 43 44 45 45 46 48 50 53 56 57 60 61 59 57 56 53 51 47 43 40 36 33
47 47 47 46 43 40 37 33 30 27 23 18 15 15 18 22 26 30 34 36 37 39 39 40 41 41 43 45 47 50 53 56 57 57 56 55 53 50 47 44 41 37 33
46 46 45 44 42 38 34 31 27 24 20 15 10 9 12 16 21 25 28 32 33 35 35 36 38 37 38 40 43 46 49 53 55 56 55 54 52 50 47 43 40 37 34
45 45 44 42 40 37 33 29 26 22 18 13 8 5 7 12 17 21 25 28 30 32 32 32 34 35 34 35 37 41 45 48 51 52 53 53 51 49 45 43 40 37 35
44 43 42 41 39 35 32 28 24 21 17 12 7 2 5 10 15 19 22 24 27 28 30 30 31 32 32 32 32 35 40 45 48 51 50 50 50 49 45 42 39 37 35
43 42 41 40 38 34 31 27 23 21 17 11 6 1 4 9 13 17 20 22 24 26 27 28 29 30 30 30 30 32 37 42 46 48 50 49 47 47 45 42 39 37 35
42 41 40 39 37 34 30 26 22 20 17 12 6 2 4 7 11 14 18 20 22 25 26 27 28 28 29 29 28 30 35 40 43 45 47 48 47 46 44 41 39 37 35
40 39 39 38 36 33 30 25 22 18 16 12 7 2 3 7 10 13 16 18 21 23 25 26 26 27 28 28 27 30 35 39 41 42 45 47 46 45 43 40 38 36 35
39 38 37 37 35 32 29 25 22 19 15 12 8 4 4 7 9 12 15 17 19 21 23 24 25 26 27 27 28 31 36 39 41 42 43 45 45 43 41 39 38 36 34
37 37 37 35 34 32 29 25 23 19 15 12 9 6 5 6 8 11 14 16 18 20 22 23 24 25 26 27 30 33 36 40 41 42 43 44 43 42 40 38 37 35 32
35 36 36 35 33 31 29 26 23 19 15 13 11 8 7 7 8 10 12 14 16 19 21 22 23 24 26 27 30 33 37 40 41 42 44 42 41 40 38 37 36 34 31
32 33 34 33 32 31 29 26 23 20 17 14 12 10 9 8 9 10 11 13 15 16 18 20 22 24 26 28 30 32 35 38 40 41 42 42 41 39 37 35 34 32 30
29 31 31 31 31 30 29 26 23 20 19 17 15 12 10 9 9 10 12 13 14 15 17 20 22 24 25 26 28 32 35 38 39 42 41 39 37 36 34 32 31 31 29
26 27 28 29 28 28 28 27 24 22 19 18 18 17 14 12 12 12 13 14 14 16 18 20 21 23 24 27 29 32 34 35 36 37 36 35 34 34 32 31 30 29 28
23 24 25 26 25 25 26 26 25 23 21 19 17 16 15 15 14 14 13 14 15 17 18 19 21 23 25 27 29 31 33 34 34 32 32 32 32 31 29 28 27 26 26
19 20 21 22 23 22 23 24 24 24 23 21 19 17 17 16 16 15 15 16 17 19 20 21 23 24 26 28 30 31 32 31 30 30 30 30 28 27 26 25 24 24 23
Wind_Direction
302 301 299 296 293 290 286 283 279 276 272 268 265 261 257 253 248 244 242 241 240 239 239 239 238 237 235 232 232 232 232 231 231 231 233 234 235 238 242 248 255 259 265
306 304 302 300 297 293 290 286 282 277 273 268 264 261 257 254 250 246 243 240 239 239 238 237 236 235 234 232 231 231 231 231 231 231 232 233 234 236 240 245 251 255 259
310 308 306 303 300 297 293 289 285 280 274 270 265 261 257 253 250 247 244 241 239 238 238 237 236 235 234 233 231 231 230 230 230 230 231 232 232 234 236 241 246 250 254
314 312 310 307 304 301 296 293 288 283 276 270 265 260 257 254 250 246 243 241 239 238 237 236 236 235 234 233 232 231 230 229 229 230 229 230 231 232 234 237 241 245 249
318 316 314 311 308 304 300 296 292 286 279 272 266 260 256 253 250 246 243 240 238 237 237 236 236 235 234 232 232 231 230 229 229 229 228 229 229 230 231 234 237 241 246
320 319 317 315 313 309 305 301 296 289 282 275 268 260 255 250 247 244 242 239 237 236 236 235 235 235 235 233 232 232 230 230 230 229 229 229 228 228 229 231 234 238 242
323 323 321 319 316 313 309 305 302 295 286 278 270 262 254 249 245 242 240 238 236 235 235 235 235 235 235 235 233 231 231 231 230 230 229 229 228 227 228 228 231 234 239
327 326 324 322 320 318 315 311 306 300 290 281 272 263 254 247 243 240 238 236 234 233 233 233 234 234 234 234 234 233 232 233 231 230 229 229 228 226 226 227 228 231 235
330 329 328 326 325 322 320 317 312 305 295 285 275 265 253 245 241 237 235 233 231 230 230 231 232 233 233 233 233 233 233 231 229 227 227 227 227 225 225 226 226 228 232
333 333 332 330 329 327 325 323 319 313 303 292 279 266 254 243 238 234 231 230 228 226 227 229 230 230 231 231 231 231 231 230 229 226 225 225 224 223 223 224 224 226 229
337 337 336 335 334 333 330 329 327 321 314 302 284 267 252 239 232 229 227 224 223 222 222 223 225 226 227 227 228 229 229 229 228 224 222 221 222 221 221 221 223 224 226
340 340 340 340 339 338 337 334 333 330 324 315 294 266 247 233 226 224 220 216 215 216 217 218 220 221 223 224 225 224 225 226 225 222 220 219 220 220 219 219 220 222 224
343 344 344 344 344 343 342 341 340 338 334 327 308 269 240 226 221 216 211 208 207 210 211 214 215 216 218 221 222 223 222 222 221 220 218 216 216 216 217 217 218 220 222
346 347 347 347 348 348 347 346 346 346 344 342 331 279 227 213 209 206 203 203 204 205 207 209 211 211 214 216 219 221 220 218 216 215 214 214 214 213 215 216 218 220 222
348 349 349 349 350 352 351 351 352 352 351 350 347 313 200 195 196 195 198 198 199 201 202 205 207 208 211 213 214 216 216 213 211 211 209 210 211 210 211 212 215 218 220
351 352 352 352 353 354 354 354 354 354 354 357 5 30 179 186 189 193 194 194 196 196 197 200 202 204 206 208 210 211 210 206 205 207 208 206 205 206 206 209 212 215 217
353 354 356 356 356 356 357 357 356 357 359 360 5 52 159 175 180 184 188 190 192 192 193 196 199 201 203 205 207 207 204 200 198 201 204 203 202 202 203 206 210 213 216
355 357 358 359 359 0 1 2 1 2 4 5 11 52 144 165 171 176 180 184 186 188 191 195 199 201 203 205 206 203 199 196 194 196 198 199 199 199 201 205 208 211 214
357 359 1 2 3 4 6 8 9 9 11 14 26 65 125 150 163 172 178 182 185 189 192 195 198 200 202 204 203 200 196 193 190 189 192 196 196 198 201 204 206 209 213
359 1 4 6 6 8 11 14 16 17 21 27 40 66 104 144 161 170 177 181 186 190 194 196 199 202 203 202 198 195 192 188 186 186 187 190 194 197 201 204 206 208 213
0 3 6 10 10 11 13 16 19 24 30 38 48 62 84 116 139 157 171 178 184 188 191 195 198 200 200 196 193 191 188 185 184 184 185 188 192 195 199 203 205 208 214
1 4 8 12 15 17 19 22 26 32 38 43 52 62 79 103 124 139 156 166 173 178 184 189 191 193 192 190 188 186 183 182 180 181 184 187 189 193 197 201 205 209 214
1 5 9 13 18 22 26 29 33 39 45 50 56 63 75 94 114 131 145 155 162 171 176 179 181 182 182 181 181 181 181 182 181 181 183 186 188 191 196 202 207 211 215
1 6 10 15 20 25 29 33 37 42 48 54 58 65 74 88 105 120 133 143 151 158 163 166 168 170 172 174 176 177 179 179 178 179 181 186 189 192 197 202 207 210 214
359 4 10 15 20 26 31 34 38 44 47 52 56 62 72 84 95 106 116 129 139 144 150 155 160 164 167 168 169 172 174 175 175 177 182 187 191 193 197 201 205 209 210
355 1 8 15 20 26 30 34 39 45 50 54 58 64 70 79 88 96 106 115 124 133 136 142 149 153 155 159 163 165 168 170 173 179 184 188 191 193 197 201 205 207 210
Height
5716 5711 5706 5701 5696 5691 5687 5683 5680 5677 5675 5673 5673 5674 5675 5678 5682 5686 5691 5697 5702 5707 5713 5719 5726 5732 5738 5744 5750 5756 5761 5767 5772 5776 5781 5786 5789 5792 5795 5797 5799 5800 5801
5704 5699 5693 5687 5681 5675 5670 5666 5662 5659 5656 5654 5654 5654 5656 5658 5662 5667 5672 5678 5683 5690 5696 5703 5710 5717 5724 5730 5737 5744 5750 5756 5762 5767 5772 5776 5781 5785 5788 5791 5793 5794 5795
5692 5685 5678 5671 5665 5658 5652 5647 5642 5638 5635 5634 5633 5634 5635 5638 5641 5646 5651 5658 5664 5671 5678 5685 5693 5701 5708 5716 5724 5731 5738 5744 5750 5756 5762 5767 5772 5777 5781 5784 5786 5788 5789
5680 5672 5664 5657 5649 5641 5634 5627 5621 5617 5614 5612 5612 5613 5614 5617 5621 5626 5631 5637 5644 5651 5659 5667 5675 5683 5692 5701 5709 5717 5724 5731 5738 5745 5752 5758 5763 5768 5773 5776 5779 5782 5784
5668 5659 5650 5641 5632 5624 5615 5608 5601 5596 5592 5590 5590 5591 5593 5596 5601 5605 5611 5618 5624 5632 5640 5648 5657 5665 5675 5685 5694 5702 5710 5718 5726 5734 5741 5747 5754 5759 5765 5768 5772 5775 5777
5656 5646 5636 5626 5616 5607 5598 5589 5582 5576 5571 5568 5567 5568 5571 5574 5580 5585 5591 5598 5606 5614 5622 5630 5638 5648 5658 5668 5678 5687 5696 5705 5714 5722 5730 5737 5744 5750 5756 5760 5764 5768 5771
5644 5634 5623 5612 5602 5591 5581 5571 5563 5556 5551 5548 5547 5547 5550 5554 5559 5566 5572 5580 5589 5597 5606 5613 5622 5631 5640 5651 5662 5672 5681 5691 5701 5710 5718 5726 5734 5741 5746 5751 5756 5760 5764
5633 5622 5611 5599 5588 5577 5566 5556 5547 5540 5534 5531 5529 5529 5532 5536 5541 5547 5554 5562 5572 5582 5590 5599 5607 5616 5625 5635 5647 5656 5667 5678 5689 5698 5708 5715 5723 5730 5736 5742 5747 5752 5756
5623 5611 5600 5587 5576 5564 5553 5543 5534 5526 5520 5516 5514 5514 5516 5520 5525 5531 5538 5547 5558 5568 5577 5585 5594 5602 5612 5622 5633 5644 5654 5665 5674 5685 5695 5704 5712 5720 5727 5734 5740 5745 5749
5613 5602 5589 5577 5565 5554 5543 5532 5523 5515 5509 5505 5503 5502 5503 5507 5512 5518 5526 5536 5546 5556 5566 5574 5582 5591 5599 5608 5618 5629 5640 5651 5662 5673 5683 5692 5702 5710 5718 5725 5731 5737 5741
5605 5593 5581 5568 5557 5545 5534 5524 5516 5508 5501 5496 5494 5493 5494 5497 5502 5509 5517 5526 5536 5545 5554 5563 5572 5580 5589 5597 5606 5616 5627 5638 5649 5660 5671 5682 5691 5700 5709 5716 5723 5729 5734
5598 5586 5574 5561 5550 5538 5528 5519 5511 5503 5496 5491 5488 5487 5488 5491 5496 5502 5510 5519 5528 5537 5546 5555 5563 5572 5580 5588 5596 5605 5616 5626 5637 5649 5660 5671 5682 5691 5699 5707 5715 5721 5727
5592 5580 5568 5556 5545 5534 5524 5515 5507 5500 5494 5489 5485 5484 5485 5488 5492 5498 5505 5513 5522 5531 5540 5547 5556 5564 5572 5580 5588 5596 5605 5616 5627 5639 5651 5662 5672 5682 5690 5699 5707 5713 5719
5588 5576 5564 5553 5542 5532 5522 5513 5506 5499 5493 5488 5485 5484 5484 5486 5490 5496 5502 5510 5518 5526 5534 5542 5550 5558 5566 5573 5580 5588 5597 5607 5618 5630 5641 5652 5662 5673 5682 5691 5700 5706 5712
5584 5573 5562 5551 5540 5530 5521 5513 5506 5500 5494 5489 5486 5485 5485 5487 5490 5495 5501 5508 5515 5523 5530 5538 5545 5553 5560 5568 5575 5582 5589 5599 5609 5621 5632 5643 5654 5665 5675 5684 5692 5699 5706
5582 5571 5560 5550 5539 5530 5521 5513 5506 5500 5495 5491 5488 5487 5487 5488 5491 5496 5501 5507 5513 5520 5527 5534 5542 5549 5556 5563 5569 5576 5584 5592 5602 5613 5625 5636 5648 5658 5668 5677 5685 5692 5699
5580 5570 5559 5549 5539 5529 5521 5514 5508 5502 5497 5493 5490 5489 5489 5491 5493 5497 5502 5507 5513 5519 5525 5532 5539 5546 5552 5559 5565 5572 5579 5587 5597 5607 5618 5630 5642 5652 5662 5671 5679 5686 5692
5579 5570 5560 5550 5540 5530 5522 5515 5509 5503 5499 5495 5492 5491 5492 5493 5496 5499 5503 5508 5513 5518 5525 5531 5537 5543 5549 5556 5562 5568 5575 5583 5592 5602 5613 5625 5636 5646 5656 5665 5673 5680 5687
5580 5570 5561 5551 5541 5532 5524 5517 5511 5505 5501 5497 5495 5494 5494 5496 5498 5501 5504 5508 5513 5518 5524 5529 5535 5541 5546 5552 5558 5565 5572 5580 5588 5598 5609 5621 5632 5642 5651 5660 5668 5675 5681
5581 5572 5562 5553 5544 5535 5527 5520 5514 5508 5504 5501 5499 5498 5497 5498 5500 5502 5505 5509 5513 5518 5523 5528 5534 5539 5544 5549 5556 5562 5570 5578 5586 5596 5606 5618 5628 5638 5647 5655 5663 5670 5676
5582 5574 5565 5556 5547 5539 5531 5524 5517 5512 5508 5505 5503 5502 5501 5501 5503 5505 5507 5510 5514 5518 5522 5527 5532 5537 5542 5548 5554 5561 5569 5577 5585 5595 5605 5615 5626 5635 5643 5651 5659 5665 5671
5584 5576 5568 5560 5551 5543 5535 5528 5522 5517 5513 5510 5508 5506 5505 5505 5506 5507 5509 5511 5514 5518 5522 5526 5531 5536 5541 5548 5554 5561 5569 5577 5585 5595 5605 5614 5623 5632 5640 5648 5655 5661 5667
5586 5579 5571 5564 5556 5548 5541 5534 5529 5523 5519 5516 5513 5511 5510 5509 5510 5510 5512 5514 5516 5519 5522 5526 5531 5536 5542 5548 5555 5562 5570 5578 5586 5595 5604 5613 5622 5630 5638 5645 5651 5657 5663
5588 5582 5575 5568 5561 5554 5548 5541 5535 5530 5526 5523 5520 5517 5516 5514 5514 5514 5515 5517 5519 5521 5524 5528 5533 5538 5544 5550 5557 5564 5572 5579 5588 5596 5605 5613 5621 5629 5636 5642 5648 5653 5658
5589 5584 5578 5572 5566 5560 5554 5548 5542 5537 5533 5529 5527 5524 5522 5521 5520 5520 5521 5522 5523 5526 5529 5532 5537 5542 5548 5554 5560 5568 5575 5583 5590 5598 5606 5614 5621 5627 5633 5639 5645 5650 5654
5590 5586 5581 5576 5571 5565 5560 5555 5550 5545 5540 5537 5534 5531 5529 5528 5527 5527 5527 5528 5529 5532 5534 5538 5542 5547 5552 5559 5565 5572 5579 5587 5593 5600 5608 5614 5620 5626 5632 5637 5642 5646 5651